| time (UTC) | temp C | wind direction | speed KPH | gust KPH | rain 1hr cm | rain 24hr cm | rain mn cm | humidity % | barometer mb |
| 20260509162008 | 7 | 120 | 0.0 | 0.0 | 0.00 | 0.00 | 0.00 | 70 | 1018.6 |
| 20260509161009 | 7 | 120 | 0.0 | 0.0 | 0.00 | 0.00 | 0.00 | 68 | 1018.7 |
| 20260509160656 | 7 | 120 | 0.0 | 0.0 | 0.00 | 0.00 | 0.00 | 68 | 1018.6 |
| 20260509160008 | 7 | 120 | 0.0 | 0.0 | 0.00 | 0.00 | 0.00 | 68 | 1018.6 |
| 20260509155008 | 7 | 120 | 0.0 | 0.0 | 0.00 | 0.00 | 0.00 | 67 | 1018.6 |
| 20260509154656 | 7 | 120 | 0.0 | 0.0 | 0.00 | 0.00 | 0.00 | 65 | 1018.6 |
| 20260509154009 | 7 | 120 | 0.0 | 0.0 | 0.00 | 0.00 | 0.00 | 64 | 1018.6 |
| 20260509153008 | 8 | 120 | 0.0 | 0.0 | 0.00 | 0.00 | 0.00 | 62 | 1018.5 |
| 20260509152656 | 8 | 120 | 0.0 | 0.0 | 0.00 | 0.00 | 0.00 | 61 | 1018.5 |
| 20260509152008 | 8 | 120 | 0.0 | 0.0 | 0.00 | 0.00 | 0.00 | 60 | 1018.5 |
| 20260509151009 | 8 | 120 | 0.0 | 0.0 | 0.00 | 0.00 | 0.00 | 59 | 1018.5 |
| 20260509150655 | 8 | 120 | 0.0 | 0.0 | 0.00 | 0.00 | 0.00 | 60 | 1018.5 |
| 20260509145009 | 10 | 120 | 0.0 | 0.0 | 0.00 | 0.15 | 0.00 | 62 | 1018.5 |
| 20260509144657 | 10 | 120 | 0.0 | 0.0 | 0.00 | 0.15 | 0.00 | 61 | 1018.5 |
| 20260509143009 | 10 | 356 | 0.0 | 8.0 | 0.00 | 0.15 | 0.00 | 52 | 1018.2 |
| 20260509142656 | 10 | 356 | 0.0 | 9.7 | 0.00 | 0.15 | 0.00 | 51 | 1018.2 |
| 20260509140656 | 11 | 350 | 6.4 | 17.7 | 0.00 | 0.15 | 0.00 | 50 | 1018.1 |
| 20260509134656 | 11 | 297 | 11.3 | 16.1 | 0.00 | 0.15 | 0.00 | 48 | 1018.3 |
| 20260509132655 | 11 | 11 | 0.0 | 9.7 | 0.00 | 0.15 | 0.00 | 50 | 1018.2 |
| 20260509130657 | 12 | 93 | 0.0 | 0.0 | 0.00 | 0.15 | 0.00 | 46 | 1017.9 |
| 20260509124656 | 12 | 308 | 0.0 | 11.3 | 0.00 | 0.15 | 0.00 | 43 | 1017.6 |
| 20260509122656 | 12 | 349 | 6.4 | 16.1 | 0.00 | 0.15 | 0.00 | 42 | 1017.6 |
| 20260509120655 | 12 | 359 | 6.4 | 16.1 | 0.00 | 0.15 | 0.00 | 42 | 1017.4 |
| 20260509114655 | 12 | 345 | 8.0 | 22.5 | 0.00 | 0.15 | 0.00 | 41 | 1017.1 |
| 20260509112656 | 12 | 342 | 14.5 | 25.7 | 0.00 | 0.15 | 0.00 | 41 | 1016.7 |
| 20260509110657 | 13 | 346 | 16.1 | 25.7 | 0.00 | 0.15 | 0.00 | 41 | 1016.4 |
| 20260509104656 | 13 | 335 | 12.9 | 25.7 | 0.00 | 0.15 | 0.00 | 40 | 1015.8 |
| 20260509102656 | 13 | 280 | 20.9 | 33.8 | 0.00 | 0.15 | 0.00 | 37 | 1015.3 |
| 20260509100656 | 15 | 270 | 14.5 | 27.4 | 0.00 | 0.15 | 0.00 | 34 | 1014.9 |
| 20260509094657 | 16 | 293 | 12.9 | 24.1 | 0.00 | 0.15 | 0.00 | 32 | 1014.4 |
| 20260509092656 | 16 | 307 | 17.7 | 30.6 | 0.00 | 0.15 | 0.00 | 30 | 1014.4 |
| 20260509090656 | 17 | 300 | 20.9 | 30.6 | 0.00 | 0.15 | 0.00 | 28 | 1014.0 |
| 20260509084655 | 17 | 288 | 22.5 | 37.0 | 0.00 | 0.15 | 0.00 | 27 | 1013.9 |
| 20260509082657 | 17 | 326 | 11.3 | 33.8 | 0.00 | 0.15 | 0.00 | 26 | 1013.7 |
| 20260509080656 | 17 | 277 | 16.1 | 35.4 | 0.00 | 0.15 | 0.00 | 24 | 1013.7 |
| 20260509074657 | 18 | 326 | 11.3 | 25.7 | 0.00 | 0.15 | 0.00 | 25 | 1013.8 |
| 20260509072655 | 18 | 294 | 19.3 | 30.6 | 0.00 | 0.15 | 0.00 | 23 | 1013.6 |
| 20260509070656 | 18 | 278 | 22.5 | 40.2 | 0.00 | 0.15 | 0.00 | 22 | 1013.2 |
| 20260509064657 | 20 | 274 | 17.7 | 29.0 | 0.00 | 0.15 | 0.00 | 20 | 1013.2 |
| 20260509062656 | 20 | 284 | 16.1 | 33.8 | 0.00 | 0.15 | 0.00 | 21 | 1013.0 |
| 20260509060656 | 20 | 329 | 14.5 | 37.0 | 0.00 | 0.15 | 0.00 | 20 | 1013.0 |
| 20260509054655 | 20 | 309 | 8.0 | 41.8 | 0.00 | 0.15 | 0.00 | 21 | 1013.0 |
| 20260509052656 | 20 | 291 | 20.9 | 37.0 | 0.00 | 0.15 | 0.00 | 20 | 1012.8 |
| 20260509050656 | 21 | 222 | 14.5 | 37.0 | 0.00 | 0.15 | 0.00 | 18 | 1012.8 |
| 20260509044656 | 20 | 274 | 22.5 | 35.4 | 0.00 | 0.15 | 0.00 | 18 | 1012.9 |
| 20260509042655 | 20 | 264 | 22.5 | 46.7 | 0.00 | 0.15 | 0.00 | 17 | 1013.0 |
| 20260509040657 | 20 | 269 | 14.5 | 43.5 | 0.00 | 0.15 | 0.00 | 21 | 1012.8 |
| 20260509034656 | 20 | 290 | 17.7 | 35.4 | 0.00 | 0.15 | 0.00 | 21 | 1012.8 |
| 20260509033009 | 20 | 273 | 29.0 | 53.1 | 0.00 | 0.15 | 0.00 | 23 | 1012.7 |
| 20260509032655 | 20 | 256 | 17.7 | 32.2 | 0.00 | 0.15 | 0.00 | 24 | 1012.7 |
| 20260509032009 | 20 | 338 | 22.5 | 43.5 | 0.00 | 0.15 | 0.00 | 25 | 1012.6 |
| 20260509030655 | 20 | 304 | 11.3 | 48.3 | 0.00 | 0.15 | 0.00 | 25 | 1012.4 |
| 20260509025008 | 20 | 280 | 24.1 | 38.6 | 0.00 | 0.15 | 0.00 | 24 | 1012.4 |
| 20260509024656 | 20 | 260 | 17.7 | 38.6 | 0.00 | 0.15 | 0.00 | 25 | 1012.4 |
| 20260509024009 | 20 | 249 | 11.3 | 35.4 | 0.00 | 0.15 | 0.00 | 23 | 1012.6 |
| 20260509022657 | 20 | 301 | 19.3 | 32.2 | 0.00 | 0.15 | 0.00 | 27 | 1012.6 |
| 20260509020656 | 20 | 333 | 9.7 | 17.7 | 0.00 | 0.15 | 0.00 | 28 | 1012.6 |
| 20260509014656 | 18 | 278 | 1.6 | 14.5 | 0.00 | 0.15 | 0.00 | 31 | 1012.7 |
| 20260509012656 | 18 | 243 | 3.2 | 17.7 | 0.00 | 0.15 | 0.00 | 35 | 1012.8 |
| 20260509010657 | 18 | 58 | 3.2 | 16.1 | 0.00 | 0.15 | 0.00 | 35 | 1012.4 |
| 20260509004657 | 17 | 131 | 4.8 | 14.5 | 0.00 | 0.15 | 0.00 | 40 | 1012.2 |
| 20260509002656 | 17 | 156 | 12.9 | 16.1 | 0.00 | 0.15 | 0.00 | 37 | 1012.0 |
| 20260509002009 | 17 | 122 | 4.8 | 14.5 | 0.00 | 0.15 | 0.00 | 41 | 1011.9 |
| 20260509000656 | 17 | 25 | 14.5 | 35.4 | 0.00 | 0.15 | 0.00 | 37 | 1011.9 |
| 20260508234656 | 16 | 83 | 11.3 | 14.5 | 0.00 | 0.15 | 0.00 | 45 | 1012.0 |
| 20260508232657 | 16 | 31 | 3.2 | 11.3 | 0.00 | 0.15 | 0.00 | 47 | 1011.8 |
| 20260508230657 | 15 | 73 | 12.9 | 20.9 | 0.00 | 0.15 | 0.00 | 50 | 1011.7 |
| 20260508230008 | 13 | 352 | 8.0 | 19.3 | 0.00 | 0.15 | 0.00 | 46 | 1011.4 |
| 20260508225008 | 12 | 68 | 9.7 | 16.1 | 0.00 | 0.15 | 0.00 | 55 | 1011.8 |
| 20260508224655 | 12 | 75 | 4.8 | 14.5 | 0.00 | 0.15 | 0.00 | 55 | 1011.8 |
| 20260508224009 | 12 | 77 | 11.3 | 14.5 | 0.00 | 0.15 | 0.00 | 57 | 1011.8 |
| 20260508223009 | 12 | 83 | 3.2 | 16.1 | 0.00 | 0.15 | 0.00 | 58 | 1011.8 |
| 20260508222656 | 12 | 58 | 11.3 | 16.1 | 0.00 | 0.15 | 0.00 | 58 | 1011.8 |
| 20260508221008 | 12 | 198 | 0.0 | 9.7 | 0.00 | 0.15 | 0.00 | 60 | 1011.9 |
| 20260508220655 | 12 | 198 | 1.6 | 12.9 | 0.00 | 0.15 | 0.00 | 59 | 1011.8 |
| 20260508214656 | 12 | 53 | 8.0 | 12.9 | 0.00 | 0.15 | 0.00 | 62 | 1011.7 |
| 20260508213009 | 11 | 75 | 6.4 | 16.1 | 0.00 | 0.15 | 0.00 | 63 | 1011.7 |
| 20260508212656 | 11 | 42 | 9.7 | 16.1 | 0.00 | 0.15 | 0.00 | 62 | 1011.6 |
| 20260508211008 | 11 | 56 | 9.7 | 14.5 | 0.00 | 0.15 | 0.00 | 62 | 1011.4 |
| 20260508210658 | 11 | 41 | 8.0 | 16.1 | 0.00 | 0.15 | 0.00 | 62 | 1011.3 |
| 20260508210008 | 11 | 24 | 11.3 | 16.1 | 0.00 | 0.15 | 0.00 | 62 | 1011.1 |
| 20260508204655 | 10 | 14 | 6.4 | 20.9 | 0.00 | 0.15 | 0.00 | 61 | 1010.6 |
| 20260508204009 | 10 | 343 | 12.9 | 27.4 | 0.00 | 0.15 | 0.00 | 64 | 1010.4 |
| 20260508203008 | 10 | 297 | 11.3 | 24.1 | 0.00 | 0.15 | 0.00 | 64 | 1010.4 |
| 20260508202656 | 10 | 245 | 16.1 | 25.7 | 0.00 | 0.15 | 0.00 | 64 | 1010.4 |
| 20260508202008 | 10 | 283 | 12.9 | 25.7 | 0.00 | 0.15 | 0.00 | 63 | 1010.3 |
| 20260508201009 | 11 | 217 | 12.9 | 27.4 | 0.00 | 0.15 | 0.00 | 62 | 1010.4 |
| 20260508200657 | 11 | 232 | 11.3 | 27.4 | 0.00 | 0.15 | 0.00 | 62 | 1010.4 |
| 20260508200010 | 11 | 264 | 11.3 | 25.7 | 0.00 | 0.15 | 0.00 | 61 | 1010.4 |
| 20260508195009 | 11 | 315 | 17.7 | 33.8 | 0.00 | 0.15 | 0.00 | 60 | 1010.3 |
| 20260508194656 | 11 | 260 | 16.1 | 33.8 | 0.00 | 0.15 | 0.00 | 60 | 1010.2 |
| 20260508194008 | 11 | 263 | 17.7 | 25.7 | 0.00 | 0.15 | 0.00 | 61 | 1010.1 |
| 20260508193008 | 11 | 219 | 11.3 | 41.8 | 0.00 | 0.15 | 0.00 | 61 | 1010.1 |
| 20260508192656 | 10 | 248 | 14.5 | 41.8 | 0.00 | 0.15 | 0.00 | 60 | 1010.1 |
| 20260508192009 | 11 | 207 | 8.0 | 22.5 | 0.00 | 0.15 | 0.00 | 61 | 1010.1 |
| 20260508191008 | 11 | 236 | 9.7 | 29.0 | 0.00 | 0.15 | 0.00 | 58 | 1010.1 |
| 20260508190656 | 11 | 252 | 4.8 | 29.0 | 0.00 | 0.15 | 0.00 | 58 | 1010.0 |
| 20260508190008 | 11 | 235 | 11.3 | 32.2 | 0.00 | 0.15 | 0.00 | 58 | 1010.2 |
| 20260508185009 | 11 | 207 | 14.5 | 30.6 | 0.00 | 0.15 | 0.00 | 57 | 1010.2 |
| 20260508184657 | 11 | 14 | 6.4 | 30.6 | 0.00 | 0.15 | 0.00 | 57 | 1010.3 |
| 20260508184009 | 11 | 250 | 11.3 | 30.6 | 0.00 | 0.15 | 0.00 | 57 | 1010.0 |
| 20260508183009 | 11 | 204 | 25.7 | 37.0 | 0.00 | 0.15 | 0.00 | 55 | 1010.0 |
| 20260508182656 | 11 | 242 | 16.1 | 32.2 | 0.00 | 0.15 | 0.00 | 54 | 1009.9 |
| 20260508182008 | 11 | 228 | 19.3 | 25.7 | 0.00 | 0.15 | 0.00 | 54 | 1009.8 |
| 20260508181008 | 11 | 201 | 11.3 | 19.3 | 0.00 | 0.15 | 0.00 | 54 | 1009.8 |
| 20260508180656 | 11 | 232 | 11.3 | 20.9 | 0.00 | 0.15 | 0.00 | 54 | 1009.8 |
| 20260508180008 | 10 | 240 | 12.9 | 22.5 | 0.00 | 0.15 | 0.00 | 54 | 1010.0 |
| 20260508174656 | 10 | 235 | 6.4 | 12.9 | 0.00 | 0.15 | 0.00 | 56 | 1010.1 |
| 20260508174009 | 10 | 346 | 0.0 | 9.7 | 0.00 | 0.15 | 0.00 | 56 | 1010.1 |
| 20260508173009 | 10 | 255 | 4.8 | 11.3 | 0.00 | 0.15 | 0.00 | 54 | 1009.9 |
| 20260508172655 | 11 | 243 | 4.8 | 14.5 | 0.00 | 0.15 | 0.00 | 52 | 1009.9 |
| 20260508172008 | 11 | 186 | 8.0 | 16.1 | 0.00 | 0.15 | 0.00 | 51 | 1009.8 |
| 20260508171008 | 11 | 193 | 6.4 | 12.9 | 0.00 | 0.15 | 0.00 | 50 | 1009.9 |
| 20260508170657 | 11 | 188 | 8.0 | 17.7 | 0.00 | 0.15 | 0.00 | 50 | 1009.9 |
| 20260508170009 | 10 | 221 | 4.8 | 17.7 | 0.00 | 0.15 | 0.00 | 51 | 1010.0 |
| 20260508165008 | 10 | 195 | 8.0 | 14.5 | 0.00 | 0.15 | 0.00 | 52 | 1009.9 |
| 20260508164657 | 10 | 269 | 1.6 | 9.7 | 0.00 | 0.15 | 0.00 | 53 | 1009.8 |
| 20260508163009 | 10 | 339 | 0.0 | 9.7 | 0.00 | 0.15 | 0.00 | 54 | 1009.8 |
| 20260508162655 | 10 | 339 | 1.6 | 9.7 | 0.00 | 0.15 | 0.00 | 54 | 1009.8 |